Voltar ao catálogo

SL-8 DEB

AtivoPO
NORAD 29287·DEBRIS·🇷🇺 Russia

Lançado Dec 17, 1981 de Plesetsk Cosmodrome

Loading…

Próximas Passagens (próximas 24 horas)

TLE

AtualizadoSource: Space-Track

Época: Sep 13, 2026, 17:49 UTC

1 29287U 81120R   26256.74272377  .00000104  00000-0  11094-2 0  9992
2 29287  82.9600  59.1509 0021704 213.9513 146.0158 12.04485184181037

Acompanhe SL-8 DEB em tempo real com AllMySat

Download on the App Store